• Processing (Info)

  • MPEC 2022-Q133 : 2022 QN5

    The following Minor Planet Electronic Circular may be linked-to from your own Web pages, but must not otherwise be redistributed electronically.

    A form allowing access to any MPEC is at the bottom of this page.


    Read MPEC 2022-Q132 Read MPEC 2022-Q134


    M.P.E.C. 2022-Q133                              Issued 2022 August 26, 19:38 UT
    
         The Minor Planet Electronic Circulars contain information on unusual
             minor planets and routine data on comets.  They are published
        on behalf of Division F of the International Astronomical Union by the
              Minor Planet Center, Smithsonian Astrophysical Observatory,
                              Cambridge, MA 02138, U.S.A.
    
                 Prepared using the Tamkin Foundation Computer Network
    
                                  MPC@CFA.HARVARD.EDU
                URL https://www.minorplanetcenter.net/    ISSN 1523-6714
    
                                    2022 QN5                                 
    
    
    Observations:
         K22Q05N* C2022 08 25.35137420 59 49.914-10 31 44.85         21.15wUEQ133F52
         K22Q05N  C2022 08 25.37580820 59 44.470-10 31 41.45         21.28wUEQ133F52
         K22Q05N  C2022 08 25.38801220 59 41.760-10 31 39.68         21.19wUEQ133F52
         K22Q05N  C2022 08 25.52187020 59 12.083-10 31 10.61         20.77GVEQ133F51
         K22Q05N  C2022 08 25.52251320 59 11.955-10 31 10.47         20.88GVEQ133F51
         K22Q05N KC2022 08 25.86274920 58 18.62 -10 31 06.6          20.8 GVEQ133L06
         K22Q05N KC2022 08 25.86556020 58 17.95 -10 31 06.2          21.0 GVEQ133L06
         K22Q05N KC2022 08 25.86837020 58 17.31 -10 31 06.2          21.1 GVEQ133L06
         K22Q05N 2C2022 08 25.87856320 58 18.832-10 30 30.25         20.8 GXEQ133J04
         K22Q05N 1C2022 08 25.93088 20 58 02.46 -10 31 03.2          21.4 VXEQ133033
         K22Q05N 1C2022 08 25.93250 20 58 02.07 -10 31 02.7          21.1 VXEQ133033
         K22Q05N 1C2022 08 25.93411 20 58 01.73 -10 31 02.4          21.1 VXEQ133033
         K22Q05N |C2022 08 26.03463 20 57 48.13 -10 27 44.3          20.8 VuEQ133807
         K22Q05N |C2022 08 26.04119 20 57 46.55 -10 27 43.4          21.0 VuEQ133807
         K22Q05N |C2022 08 26.04775 20 57 44.94 -10 27 42.6          21.2 VuEQ133807
         K22Q05N ^C2022 08 26.24184120 57 07.652-10 29 04.08         20.82GVEQ133568
         K22Q05N ^C2022 08 26.24281820 57 07.412-10 29 04.00         20.81GVEQ133568
         K22Q05N ^C2022 08 26.24379520 57 07.164-10 29 03.93         20.81GVEQ133568
         K22Q05N  C2022 08 26.26338720 56 56.411-10 29 38.91         20.9 GVEQ133654
         K22Q05N  C2022 08 26.27140620 56 54.284-10 29 36.96         20.9 GVEQ133654
         K22Q05N  C2022 08 26.30770520 56 44.658-10 29 29.24         21.0 GVEQ133654
         K22Q05N  C2022 08 26.31591220 56 42.488-10 29 27.84         21.0 GVEQ133654
    
    Observer details:
    033 Karl Schwarzschild Observatory, Tautenburg.  Observers S. Melnikov, C.
        Hoegner, U. Laux, F. Ludwig, B. Stecklum.  Measurer B. Stecklum.  1.34-m
        f/3 Schmidt + CCD.
    568 Mauna Kea.  Observers R. Wainscoat, A. Acohido, H. Flewelling.  Measurers
        R. Weryk, R. Wainscoat.  3.6-m Canada-France-Hawaii Telescope + CCD.
    654 Table Mountain Observatory, Wrightwood-PHMC.  Observers N. Evans, P. Choi,
        N. Saini, C. Zhai, R. Trahan, M. Shao.  1.0-m Reflector + CCD.
    807 Cerro Tololo Observatory, La Serena.  Observers T. Linder, R. Holmes, L.
        Horn.  0.61-m f/6.5 Dall-Kirkham Astrograph + CCD.
    F51 Pan-STARRS 1, Haleakala.  Observers J. Bulger, K. Chambers, T. Lowe, A.
        Schultz, I. Smith.  Measurers S. Chastel, J. Fairlamb, M. Huber, Y.
        Ramanjooloo, R. Wainscoat, R. Weryk.  1.8-m Ritchey-Chretien + CCD.
    F52 Pan-STARRS 2, Haleakala.  Observers J. Bulger, T. Lowe, A. Schultz, I.
        Smith.  Measurers K. Chambers, S. Chastel, T. de Boer, J. Fairlamb, H.
        Gao, M. Huber, C.-C. Lin, E. Magnier, Y. Ramanjooloo, R. Wainscoat, R.
        Weryk.  1.8-m Ritchey-Chretien + CCD.
    J04 ESA Optical Ground Station, Tenerife.  Observers P. Ruiz, M. Micheli, D.
        Fohring, L. Conversi, D. Koschny.  Measurers M. Micheli, R. Kresken, E.
        Schwab, M. Busch, A. Knofel.  1.0-m f/4.4 reflector + CCD.
    L06 Sormano 2 Observatory, Bellagio Via Lattea.  Observer G. Ventre.  Measurer
        P. Sicoli.  0.36m Schmidt Cassegrain + CCD.
    
    Orbital elements:
    2022 QN5                                                 Earth MOID = 0.0024 AU
    Epoch 2022 Aug. 9.0 TT = JDT 2459800.5                  Veres                   
    M 339.47074              (2000.0)            P               Q                  
    n   0.31836209     Peri.  233.15468     +0.79852358     -0.60190681             
    a   2.1241662      Node   163.84662     +0.56131433     +0.73957241             
    e   0.6088072      Incl.    1.70194     +0.21745414     +0.30123219             
    P   3.10           H   26.12          G   0.15           U   8                  
    Residuals in seconds of arc
    220825 F52  0.4-  0.0     220825 J04  0.4+  0.2+    220826 568  0.0   0.0
    220825 F52  0.2-  0.1+    220825 033  0.0   0.2-    220826 568  0.0   0.0
    220825 F52  0.3+  0.0     220825 033  0.2-  0.0     220826 654  0.3+  0.5-
    220825 F51  0.1-  0.0     220825 033  0.3+  0.0     220826 654  0.1+  0.1-
    220825 F51  0.0   0.0     220826 807  0.1+  0.2-    220826 654  0.1-  0.1+
    220825 L06  0.2-  0.3+    220826 807  0.2+  0.0     220826 654  0.0   0.4-
    220825 L06  0.5-  0.4+    220826 807  0.1-  0.1+
    220825 L06  0.4-  0.0     220826 568  0.0   0.0
    
    Ephemeris:
    2022 QN5                 a,e,i = 2.12, 0.61, 2                   q = 0.8310
    Date    TT    R. A. (2000) Decl.     Delta      r    Elong.  Phase     V
    2022 07 27    21 19 45.3 -11 14 51   0.3260  1.3324   164.3    11.9    25.0
    ...
    2022 08 11    21 16 14.5 -10 49 02   0.1843  1.1974   175.2     4.1    23.2
    ...
    2022 08 19    21 10 33.6 -10 40 31   0.1168  1.1272   169.6     9.3    22.3
    ...
    2022 08 25    21 00 45.8 -10 31 30   0.06852 1.0763   162.0    16.9    21.4
    2022 08 26    20 57 49.8 -10 28 45   0.06064 1.0681   160.4    18.5    21.1
    2022 08 27    20 54 05.3 -10 25 05   0.05279 1.0598   158.5    20.4    20.9
    ...
    2022 09 02    18 04 34.6 -05 00 07   0.0083031.0121   110.8    68.8    18.2
    ...
    2022 09 10    09 45 57.7 +11 02 50   0.05762 0.9540    22.1   156.6    29.7
    ...
    2022 09 25    09 36 16.3 +10 29 30   0.1803  0.8700    38.8   133.7    28.2
    
    M. P. C. Staff               (C) Copyright 2022 MPC           M.P.E.C. 2022-Q133
    


    Read MPEC 2022-Q132 Read MPEC 2022-Q134


    MPEC number:

    Enter an MPEC number in one of the following forms:

    • 1997-B01 (the full form)
    • J97B01 (the packed version of the full form)
    • B01 (the abbreviated form)